Time,TemperatureF,DewpointF,PressureIn,WindDirection,WindDirectionDegrees,WindSpeedMPH,WindSpeedGustMPH,Humidity,HourlyPrecipIn,Conditions,Clouds,dailyrainin,SoftwareType,DateUTC
2013-01-05 00:03:00,37.3,37.0,28.89,South,180,1.2,-999.0,99,0.00,,,0.00,Rainwise IP-100,2013-01-05 06:03:00,
2013-01-05 00:08:00,37.3,37.0,28.89,South,180,1.4,-999.0,99,0.00,,,0.00,Rainwise IP-100,2013-01-05 06:08:00,
2013-01-05 00:13:00,37.3,37.0,28.89,SSE,157,2.3,-999.0,99,0.00,,,0.00,Rainwise IP-100,2013-01-05 06:13:00,
2013-01-05 00:18:00,37.3,37.0,28.89,SSE,157,0.0,-999.0,99,0.00,,,0.00,Rainwise IP-100,2013-01-05 06:18:00,
2013-01-05 00:23:00,37.3,37.0,28.89,SE,135,0.0,-999.0,99,0.00,,,0.00,Rainwise IP-100,2013-01-05 06:23:00,
2013-01-05 00:28:00,37.3,37.0,28.88,SE,135,1.2,-999.0,99,0.00,,,0.00,Rainwise IP-100,2013-01-05 06:28:00,
2013-01-05 00:33:00,37.3,37.0,28.88,SE,135,0.0,-999.0,99,0.00,,,0.00,Rainwise IP-100,2013-01-05 06:33:00,
2013-01-05 00:38:00,37.3,37.0,28.89,SE,135,0.0,-999.0,99,0.00,,,0.00,Rainwise IP-100,2013-01-05 06:38:00,
2013-01-05 00:43:00,37.3,37.0,28.88,SE,135,0.0,-999.0,99,0.00,,,0.00,Rainwise IP-100,2013-01-05 06:43:00,
2013-01-05 00:48:00,37.3,37.0,28.88,SSE,157,1.6,-999.0,99,0.00,,,0.00,Rainwise IP-100,2013-01-05 06:48:00,
2013-01-05 00:53:00,37.3,37.0,28.88,South,180,1.4,-999.0,99,0.00,,,0.00,Rainwise IP-100,2013-01-05 06:53:00,
2013-01-05 00:58:00,37.3,37.0,28.88,South,180,2.3,-999.0,99,0.00,,,0.00,Rainwise IP-100,2013-01-05 06:58:00,
2013-01-05 01:03:00,37.3,37.0,28.87,SSE,157,1.9,-999.0,99,0.00,,,0.00,Rainwise IP-100,2013-01-05 07:03:00,
2013-01-05 01:08:00,37.3,37.0,28.87,SSE,157,2.3,-999.0,100,0.00,,,0.00,Rainwise IP-100,2013-01-05 07:08:00,
2013-01-05 01:13:00,37.4,37.0,28.87,SSE,157,0.0,-999.0,100,0.00,,,0.00,Rainwise IP-100,2013-01-05 07:13:00,
2013-01-05 01:18:00,37.3,37.0,28.87,SSE,157,1.4,-999.0,100,0.00,,,0.00,Rainwise IP-100,2013-01-05 07:18:00,
2013-01-05 01:23:00,37.3,37.0,28.86,SSE,157,2.3,-999.0,100,0.00,,,0.00,Rainwise IP-100,2013-01-05 07:23:00,
2013-01-05 01:28:00,37.2,37.0,28.87,SSE,157,1.9,-999.0,100,0.00,,,0.00,Rainwise IP-100,2013-01-05 07:28:00,
2013-01-05 01:33:00,37.3,37.0,28.87,SSE,157,1.2,-999.0,100,0.00,,,0.00,Rainwise IP-100,2013-01-05 07:33:00,
2013-01-05 01:38:00,37.3,37.0,28.86,South,180,2.3,-999.0,100,0.00,,,0.00,Rainwise IP-100,2013-01-05 07:38:00,
2013-01-05 01:43:00,37.2,37.0,28.86,SSE,157,2.1,-999.0,100,0.00,,,0.00,Rainwise IP-100,2013-01-05 07:43:00,
2013-01-05 01:48:00,37.3,37.0,28.86,SSE,157,1.4,-999.0,100,0.00,,,0.00,Rainwise IP-100,2013-01-05 07:48:00,
2013-01-05 01:53:00,37.2,37.0,28.86,SSE,157,0.0,-999.0,100,0.00,,,0.00,Rainwise IP-100,2013-01-05 07:53:00,
2013-01-05 01:58:00,37.2,37.0,28.86,SSE,157,0.0,-999.0,100,0.00,,,0.00,Rainwise IP-100,2013-01-05 07:58:00,
2013-01-05 02:03:00,37.2,37.0,28.86,SSE,157,1.4,-999.0,100,0.00,,,0.00,Rainwise IP-100,2013-01-05 08:03:00,
2013-01-05 02:08:00,37.2,37.0,28.86,SSE,157,1.4,-999.0,100,0.00,,,0.00,Rainwise IP-100,2013-01-05 08:08:00,
2013-01-05 02:13:00,37.1,37.0,28.86,SSE,157,0.0,-999.0,100,0.00,,,0.00,Rainwise IP-100,2013-01-05 08:13:00,
2013-01-05 02:18:00,37.1,37.0,28.86,SSE,157,1.2,-999.0,100,0.00,,,0.00,Rainwise IP-100,2013-01-05 08:18:00,
2013-01-05 02:23:00,37.1,37.0,28.86,SSE,157,0.0,-999.0,100,0.00,,,0.00,Rainwise IP-100,2013-01-05 08:23:00,
2013-01-05 02:28:00,37.1,37.0,28.86,SSE,157,0.0,-999.0,100,0.00,,,0.00,Rainwise IP-100,2013-01-05 08:28:00,
2013-01-05 02:33:00,37.0,37.0,28.86,SSE,157,0.0,-999.0,100,0.00,,,0.00,Rainwise IP-100,2013-01-05 08:33:00,
2013-01-05 02:38:00,37.0,37.0,28.86,SSE,157,1.6,-999.0,100,0.00,,,0.00,Rainwise IP-100,2013-01-05 08:38:00,
2013-01-05 02:43:00,37.0,37.0,28.86,SSE,157,0.0,-999.0,100,0.00,,,0.00,Rainwise IP-100,2013-01-05 08:43:00,
2013-01-05 02:48:00,36.9,37.0,28.86,SSE,157,0.0,-999.0,100,0.00,,,0.00,Rainwise IP-100,2013-01-05 08:48:00,
2013-01-05 02:53:00,36.8,37.0,28.86,SSE,157,1.9,-999.0,100,0.00,,,0.00,Rainwise IP-100,2013-01-05 08:53:00,
2013-01-05 02:54:00,36.8,37.0,28.86,SSE,157,1.4,-999.0,100,0.00,,,0.00,Rainwise IP-100,2013-01-05 08:54:00,
2013-01-05 02:57:00,36.8,37.0,28.85,SSE,157,0.0,-999.0,100,0.00,,,0.00,Rainwise IP-100,2013-01-05 08:57:00,
2013-01-05 03:02:00,36.7,37.0,28.86,SSE,157,0.0,-999.0,100,0.00,,,0.00,Rainwise IP-100,2013-01-05 09:02:00,
2013-01-05 03:07:00,36.6,37.0,28.85,SSE,157,0.0,-999.0,100,0.00,,,0.00,Rainwise IP-100,2013-01-05 09:07:00,
2013-01-05 03:12:00,36.6,37.0,28.86,SSE,157,1.6,-999.0,100,0.00,,,0.00,Rainwise IP-100,2013-01-05 09:12:00,
2013-01-05 03:17:00,36.6,37.0,28.86,SSE,157,1.2,-999.0,100,0.00,,,0.00,Rainwise IP-100,2013-01-05 09:17:00,
2013-01-05 03:22:00,36.5,37.0,28.85,SSE,157,1.4,-999.0,100,0.00,,,0.00,Rainwise IP-100,2013-01-05 09:22:00,
2013-01-05 03:27:00,36.3,36.0,28.85,SSE,157,0.0,-999.0,100,0.00,,,0.00,Rainwise IP-100,2013-01-05 09:27:00,
2013-01-05 03:32:00,36.1,36.0,28.86,SSE,157,0.0,-999.0,100,0.00,,,0.00,Rainwise IP-100,2013-01-05 09:32:00,
2013-01-05 03:37:00,35.8,36.0,28.85,SSE,157,0.0,-999.0,100,0.00,,,0.00,Rainwise IP-100,2013-01-05 09:37:00,
2013-01-05 03:42:00,35.7,36.0,28.84,SSE,157,0.0,-999.0,100,0.00,,,0.00,Rainwise IP-100,2013-01-05 09:42:00,
2013-01-05 03:47:00,35.4,35.0,28.85,SSE,157,0.0,-999.0,100,0.00,,,0.00,Rainwise IP-100,2013-01-05 09:47:00,
2013-01-05 03:52:00,35.0,35.0,28.85,SSE,157,0.0,-999.0,100,0.00,,,0.00,Rainwise IP-100,2013-01-05 09:52:00,
2013-01-05 03:57:00,34.8,35.0,28.84,SSE,157,0.0,-999.0,100,0.00,,,0.00,Rainwise IP-100,2013-01-05 09:57:00,
2013-01-05 04:02:00,34.8,35.0,28.85,SSE,157,0.0,-999.0,100,0.00,,,0.00,Rainwise IP-100,2013-01-05 10:02:00,
2013-01-05 04:07:00,34.8,35.0,28.84,SSE,157,0.0,-999.0,100,0.00,,,0.00,Rainwise IP-100,2013-01-05 10:07:00,
2013-01-05 04:12:00,34.8,35.0,28.84,SSE,157,0.0,-999.0,100,0.00,,,0.00,Rainwise IP-100,2013-01-05 10:12:00,
2013-01-05 04:17:00,34.7,35.0,28.84,SSE,157,0.0,-999.0,100,0.00,,,0.00,Rainwise IP-100,2013-01-05 10:17:00,
2013-01-05 04:22:00,34.4,35.0,28.84,SSE,157,0.0,-999.0,100,0.00,,,0.00,Rainwise IP-100,2013-01-05 10:22:00,
2013-01-05 04:27:00,34.1,35.0,28.84,SSE,157,0.0,-999.0,100,0.00,,,0.00,Rainwise IP-100,2013-01-05 10:27:00,
2013-01-05 04:32:00,33.9,35.0,28.84,SSE,157,0.0,-999.0,100,0.00,,,0.00,Rainwise IP-100,2013-01-05 10:32:00,
2013-01-05 04:37:00,33.7,35.0,28.84,SSE,157,0.0,-999.0,100,0.00,,,0.00,Rainwise IP-100,2013-01-05 10:37:00,
2013-01-05 04:42:00,33.7,35.0,28.84,SSE,157,0.0,-999.0,100,0.00,,,0.00,Rainwise IP-100,2013-01-05 10:42:00,
2013-01-05 04:47:00,33.8,35.0,28.84,SSE,157,0.0,-999.0,100,0.00,,,0.00,Rainwise IP-100,2013-01-05 10:47:00,
2013-01-05 04:52:00,33.9,35.0,28.84,SSE,157,0.0,-999.0,100,0.00,,,0.00,Rainwise IP-100,2013-01-05 10:52:00,
2013-01-05 04:57:00,34.1,35.0,28.84,SSE,157,0.0,-999.0,100,0.00,,,0.00,Rainwise IP-100,2013-01-05 10:57:00,
2013-01-05 05:02:00,34.2,35.0,28.84,SSE,157,1.6,-999.0,100,0.00,,,0.00,Rainwise IP-100,2013-01-05 11:02:00,
2013-01-05 05:07:00,34.5,35.0,28.84,SSE,157,0.0,-999.0,100,0.00,,,0.00,Rainwise IP-100,2013-01-05 11:07:00,
2013-01-05 05:12:00,34.8,35.0,28.84,South,180,3.0,-999.0,100,0.00,,,0.00,Rainwise IP-100,2013-01-05 11:12:00,
2013-01-05 05:17:00,35.3,35.0,28.84,SSW,202,2.1,-999.0,100,0.00,,,0.00,Rainwise IP-100,2013-01-05 11:17:00,
2013-01-05 05:22:00,35.6,36.0,28.84,South,180,2.6,-999.0,100,0.00,,,0.00,Rainwise IP-100,2013-01-05 11:22:00,
2013-01-05 05:27:00,35.7,36.0,28.85,North,360,2.8,-999.0,100,0.00,,,0.00,Rainwise IP-100,2013-01-05 11:27:00,
2013-01-05 05:32:00,35.7,36.0,28.84,SSW,202,1.6,-999.0,100,0.00,,,0.00,Rainwise IP-100,2013-01-05 11:32:00,
2013-01-05 05:37:00,35.6,36.0,28.85,SSW,202,1.9,-999.0,100,0.00,,,0.00,Rainwise IP-100,2013-01-05 11:37:00,
2013-01-05 05:42:00,35.4,35.0,28.84,SSW,202,1.4,-999.0,100,0.00,,,0.00,Rainwise IP-100,2013-01-05 11:42:00,
2013-01-05 05:47:00,35.1,35.0,28.84,SSW,202,2.8,-999.0,100,0.00,,,0.00,Rainwise IP-100,2013-01-05 11:47:00,
2013-01-05 05:52:00,34.9,35.0,28.84,SSW,202,0.0,-999.0,100,0.00,,,0.00,Rainwise IP-100,2013-01-05 11:52:00,
2013-01-05 05:57:00,34.7,35.0,28.84,SSW,202,0.0,-999.0,100,0.00,,,0.00,Rainwise IP-100,2013-01-05 11:57:00,
2013-01-05 06:02:00,34.5,35.0,28.84,SSW,202,0.0,-999.0,100,0.00,,,0.00,Rainwise IP-100,2013-01-05 12:02:00,
2013-01-05 06:07:00,34.3,35.0,28.84,SSW,202,1.2,-999.0,100,0.00,,,0.00,Rainwise IP-100,2013-01-05 12:07:00,
2013-01-05 06:12:00,34.3,35.0,28.84,WSW,247,1.6,-999.0,100,0.00,,,0.00,Rainwise IP-100,2013-01-05 12:12:00,
2013-01-05 06:17:00,34.3,35.0,28.84,North,360,1.6,-999.0,100,0.00,,,0.00,Rainwise IP-100,2013-01-05 12:17:00,
2013-01-05 06:22:00,34.4,35.0,28.84,North,360,0.0,-999.0,100,0.00,,,0.00,Rainwise IP-100,2013-01-05 12:22:00,
2013-01-05 06:27:00,34.5,35.0,28.84,North,360,0.0,-999.0,100,0.00,,,0.00,Rainwise IP-100,2013-01-05 12:27:00,
2013-01-05 06:32:00,34.6,35.0,28.84,North,360,1.2,-999.0,100,0.00,,,0.00,Rainwise IP-100,2013-01-05 12:32:00,
2013-01-05 06:37:00,35.0,35.0,28.84,North,360,5.1,-999.0,100,0.00,,,0.00,Rainwise IP-100,2013-01-05 12:37:00,
2013-01-05 06:42:00,35.4,35.0,28.84,North,360,1.9,-999.0,100,0.00,,,0.00,Rainwise IP-100,2013-01-05 12:42:00,
2013-01-05 06:47:00,35.7,36.0,28.84,North,360,0.0,-999.0,100,0.00,,,0.00,Rainwise IP-100,2013-01-05 12:47:00,
2013-01-05 06:52:00,35.8,36.0,28.84,North,360,0.0,-999.0,100,0.00,,,0.00,Rainwise IP-100,2013-01-05 12:52:00,
2013-01-05 06:57:00,35.8,36.0,28.84,WSW,247,2.1,-999.0,100,0.00,,,0.00,Rainwise IP-100,2013-01-05 12:57:00,
2013-01-05 07:02:00,35.8,36.0,28.84,NW,315,1.2,-999.0,100,0.00,,,0.00,Rainwise IP-100,2013-01-05 13:02:00,
2013-01-05 07:07:00,35.9,36.0,28.85,NW,315,2.3,-999.0,100,0.00,,,0.00,Rainwise IP-100,2013-01-05 13:07:00,
2013-01-05 07:12:00,35.8,36.0,28.84,North,360,4.0,-999.0,100,0.00,,,0.00,Rainwise IP-100,2013-01-05 13:12:00,
2013-01-05 07:17:00,35.9,36.0,28.85,North,360,2.3,-999.0,100,0.00,,,0.00,Rainwise IP-100,2013-01-05 13:17:00,
2013-01-05 07:22:00,36.0,36.0,28.85,WSW,247,2.1,-999.0,100,0.00,,,0.00,Rainwise IP-100,2013-01-05 13:22:00,
2013-01-05 07:27:00,36.2,36.0,28.85,North,360,2.1,-999.0,100,0.00,,,0.00,Rainwise IP-100,2013-01-05 13:27:00,
2013-01-05 07:32:00,36.3,36.0,28.85,North,360,2.8,-999.0,100,0.00,,,0.00,Rainwise IP-100,2013-01-05 13:32:00,
2013-01-05 07:37:00,36.4,36.0,28.85,WSW,247,3.3,-999.0,100,0.00,,,0.00,Rainwise IP-100,2013-01-05 13:37:00,
2013-01-05 07:42:00,36.4,36.0,28.85,North,360,2.8,-999.0,100,0.00,,,0.00,Rainwise IP-100,2013-01-05 13:42:00,
2013-01-05 07:47:00,36.5,37.0,28.85,WSW,247,4.7,-999.0,99,0.00,,,0.00,Rainwise IP-100,2013-01-05 13:47:00,
2013-01-05 07:52:00,36.5,37.0,28.86,North,360,4.2,-999.0,99,0.00,,,0.00,Rainwise IP-100,2013-01-05 13:52:00,
2013-01-05 07:57:00,36.7,37.0,28.85,North,360,3.3,-999.0,98,0.00,,,0.00,Rainwise IP-100,2013-01-05 13:57:00,
2013-01-05 08:02:00,36.8,37.0,28.85,NW,315,5.1,-999.0,98,0.00,,,0.00,Rainwise IP-100,2013-01-05 14:02:00,
2013-01-05 08:07:00,36.8,37.0,28.86,North,360,6.8,-999.0,98,0.00,,,0.00,Rainwise IP-100,2013-01-05 14:07:00,
2013-01-05 08:12:00,36.8,36.0,28.85,WSW,247,4.0,-999.0,97,0.00,,,0.00,Rainwise IP-100,2013-01-05 14:12:00,
2013-01-05 08:17:00,37.0,36.0,28.86,WSW,247,6.8,-999.0,97,0.00,,,0.00,Rainwise IP-100,2013-01-05 14:17:00,
2013-01-05 08:22:00,37.1,36.0,28.85,North,360,3.5,-999.0,96,0.00,,,0.00,Rainwise IP-100,2013-01-05 14:22:00,
2013-01-05 08:27:00,37.2,36.0,28.86,North,360,3.5,-999.0,96,0.00,,,0.00,Rainwise IP-100,2013-01-05 14:27:00,
2013-01-05 08:32:00,37.2,36.0,28.86,WSW,247,2.8,-999.0,96,0.00,,,0.00,Rainwise IP-100,2013-01-05 14:32:00,
2013-01-05 08:37:00,37.3,36.0,28.86,North,360,3.7,-999.0,96,0.00,,,0.00,Rainwise IP-100,2013-01-05 14:37:00,
2013-01-05 08:42:00,37.4,36.0,28.86,WSW,247,3.0,-999.0,95,0.00,,,0.00,Rainwise IP-100,2013-01-05 14:42:00,
2013-01-05 08:47:00,37.4,36.0,28.86,NW,315,4.4,-999.0,95,0.00,,,0.00,Rainwise IP-100,2013-01-05 14:47:00,
2013-01-05 08:52:00,37.5,37.0,28.86,WSW,247,5.4,-999.0,95,0.00,,,0.00,Rainwise IP-100,2013-01-05 14:52:00,
2013-01-05 08:57:00,37.6,37.0,28.86,WSW,247,5.1,-999.0,94,0.00,,,0.00,Rainwise IP-100,2013-01-05 14:57:00,
2013-01-05 09:02:00,37.6,36.0,28.86,WSW,247,5.1,-999.0,93,0.00,,,0.00,Rainwise IP-100,2013-01-05 15:02:00,
2013-01-05 09:07:00,37.7,36.0,28.86,WSW,247,5.8,-999.0,93,0.00,,,0.00,Rainwise IP-100,2013-01-05 15:07:00,
2013-01-05 09:12:00,37.7,36.0,28.86,North,360,6.1,-999.0,93,0.00,,,0.00,Rainwise IP-100,2013-01-05 15:12:00,
2013-01-05 09:17:00,37.8,36.0,28.86,WSW,247,7.5,-999.0,93,0.00,,,0.00,Rainwise IP-100,2013-01-05 15:17:00,
2013-01-05 09:22:00,37.9,36.0,28.86,West,270,3.3,-999.0,92,0.00,,,0.00,Rainwise IP-100,2013-01-05 15:22:00,
2013-01-05 09:27:00,38.0,36.0,28.86,West,270,5.8,-999.0,92,0.00,,,0.00,Rainwise IP-100,2013-01-05 15:27:00,
2013-01-05 09:32:00,38.1,36.0,28.86,WSW,247,7.9,-999.0,92,0.00,,,0.00,Rainwise IP-100,2013-01-05 15:32:00,
2013-01-05 09:37:00,38.3,36.0,28.87,West,270,7.9,-999.0,91,0.00,,,0.00,Rainwise IP-100,2013-01-05 15:37:00,
2013-01-05 09:42:00,38.4,36.0,28.86,North,360,3.7,-999.0,91,0.00,,,0.00,Rainwise IP-100,2013-01-05 15:42:00,
2013-01-05 09:47:00,38.7,37.0,28.86,North,360,9.6,-999.0,91,0.00,,,0.00,Rainwise IP-100,2013-01-05 15:47:00,
2013-01-05 09:52:00,39.1,37.0,28.87,West,270,5.4,-999.0,90,0.00,,,0.00,Rainwise IP-100,2013-01-05 15:52:00,
2013-01-05 09:57:00,39.4,36.0,28.86,SSW,202,3.5,-999.0,89,0.00,,,0.00,Rainwise IP-100,2013-01-05 15:57:00,
2013-01-05 10:02:00,39.8,37.0,28.86,SSW,202,4.9,-999.0,89,0.00,,,0.00,Rainwise IP-100,2013-01-05 16:02:00,
2013-01-05 10:07:00,40.8,38.0,28.87,SSW,202,6.3,-999.0,88,0.00,,,0.00,Rainwise IP-100,2013-01-05 16:07:00,
2013-01-05 10:12:00,41.3,38.0,28.87,West,270,5.8,-999.0,87,0.00,,,0.00,Rainwise IP-100,2013-01-05 16:12:00,
2013-01-05 10:17:00,41.5,38.0,28.87,SW,225,4.4,-999.0,86,0.00,,,0.00,Rainwise IP-100,2013-01-05 16:17:00,
2013-01-05 10:22:00,42.2,38.0,28.87,SSW,202,1.6,-999.0,85,0.00,,,0.00,Rainwise IP-100,2013-01-05 16:22:00,
2013-01-05 10:27:00,42.7,39.0,28.87,SSW,202,5.1,-999.0,84,0.00,,,0.00,Rainwise IP-100,2013-01-05 16:27:00,
2013-01-05 10:32:00,42.8,38.0,28.87,WSW,247,7.7,-999.0,83,0.00,,,0.00,Rainwise IP-100,2013-01-05 16:32:00,
2013-01-05 10:37:00,42.7,38.0,28.86,WSW,247,4.7,-999.0,83,0.00,,,0.00,Rainwise IP-100,2013-01-05 16:37:00,
2013-01-05 10:42:00,42.5,38.0,28.86,WSW,247,7.0,-999.0,82,0.00,,,0.00,Rainwise IP-100,2013-01-05 16:42:00,
2013-01-05 10:47:00,42.6,38.0,28.86,WSW,247,3.5,-999.0,82,0.00,,,0.00,Rainwise IP-100,2013-01-05 16:47:00,
2013-01-05 10:52:00,43.1,38.0,28.86,SSE,157,3.0,-999.0,82,0.00,,,0.00,Rainwise IP-100,2013-01-05 16:52:00,
2013-01-05 10:57:00,43.5,38.0,28.86,SW,225,7.5,-999.0,81,0.00,,,0.00,Rainwise IP-100,2013-01-05 16:57:00,
2013-01-05 11:02:00,43.7,38.0,28.86,WSW,247,4.4,-999.0,80,0.00,,,0.00,Rainwise IP-100,2013-01-05 17:02:00,
2013-01-05 11:07:00,44.0,38.0,28.86,WSW,247,6.5,-999.0,80,0.00,,,0.00,Rainwise IP-100,2013-01-05 17:07:00,
2013-01-05 11:12:00,44.1,38.0,28.86,SSW,202,5.4,-999.0,79,0.00,,,0.00,Rainwise IP-100,2013-01-05 17:12:00,
2013-01-05 11:17:00,44.6,38.0,28.85,SW,225,5.4,-999.0,78,0.00,,,0.00,Rainwise IP-100,2013-01-05 17:17:00,
2013-01-05 11:22:00,45.0,38.0,28.85,WSW,247,5.1,-999.0,77,0.00,,,0.00,Rainwise IP-100,2013-01-05 17:22:00,
2013-01-05 11:27:00,45.1,38.0,28.85,WNW,292,3.7,-999.0,76,0.00,,,0.00,Rainwise IP-100,2013-01-05 17:27:00,
2013-01-05 11:32:00,45.6,39.0,28.85,West,270,8.4,-999.0,76,0.00,,,0.00,Rainwise IP-100,2013-01-05 17:32:00,
2013-01-05 11:37:00,46.2,38.0,28.85,SW,225,5.6,-999.0,75,0.00,,,0.00,Rainwise IP-100,2013-01-05 17:37:00,
2013-01-05 11:42:00,46.3,38.0,28.84,WSW,247,4.0,-999.0,74,0.00,,,0.00,Rainwise IP-100,2013-01-05 17:42:00,
2013-01-05 11:47:00,46.5,39.0,28.84,WSW,247,3.5,-999.0,74,0.00,,,0.00,Rainwise IP-100,2013-01-05 17:47:00,
2013-01-05 11:52:00,46.8,38.0,28.84,WNW,292,3.7,-999.0,73,0.00,,,0.00,Rainwise IP-100,2013-01-05 17:52:00,
2013-01-05 11:57:00,47.0,38.0,28.83,SW,225,8.4,-999.0,72,0.00,,,0.00,Rainwise IP-100,2013-01-05 17:57:00,
2013-01-05 12:02:00,47.0,38.0,28.82,WSW,247,4.2,-999.0,72,0.00,,,0.00,Rainwise IP-100,2013-01-05 18:02:00,
2013-01-05 12:07:00,47.1,38.0,28.82,SW,225,4.4,-999.0,71,0.00,,,0.00,Rainwise IP-100,2013-01-05 18:07:00,
2013-01-05 12:12:00,47.3,38.0,28.82,WNW,292,3.0,-999.0,71,0.00,,,0.00,Rainwise IP-100,2013-01-05 18:12:00,
2013-01-05 12:17:00,47.5,38.0,28.82,West,270,6.3,-999.0,71,0.00,,,0.00,Rainwise IP-100,2013-01-05 18:17:00,
2013-01-05 12:22:00,48.1,39.0,28.81,WSW,247,5.6,-999.0,70,0.00,,,0.00,Rainwise IP-100,2013-01-05 18:22:00,
2013-01-05 12:27:00,48.7,39.0,28.81,WSW,247,2.6,-999.0,69,0.00,,,0.00,Rainwise IP-100,2013-01-05 18:27:00,
2013-01-05 12:32:00,49.0,39.0,28.80,WNW,292,2.1,-999.0,68,0.00,,,0.00,Rainwise IP-100,2013-01-05 18:32:00,
2013-01-05 12:37:00,49.3,38.0,28.79,West,270,7.0,-999.0,67,0.00,,,0.00,Rainwise IP-100,2013-01-05 18:37:00,
2013-01-05 12:42:00,49.8,38.0,28.79,WNW,292,2.8,-999.0,65,0.00,,,0.00,Rainwise IP-100,2013-01-05 18:42:00,
2013-01-05 12:47:00,50.2,38.0,28.78,WSW,247,9.6,-999.0,64,0.00,,,0.00,Rainwise IP-100,2013-01-05 18:47:00,
2013-01-05 12:52:00,50.4,38.0,28.79,SW,225,11.7,-999.0,63,0.00,,,0.00,Rainwise IP-100,2013-01-05 18:52:00,
2013-01-05 12:57:00,50.8,39.0,28.78,WSW,247,10.3,-999.0,62,0.00,,,0.00,Rainwise IP-100,2013-01-05 18:57:00,
2013-01-05 13:02:00,51.2,38.0,28.78,SSW,202,7.7,-999.0,61,0.00,,,0.00,Rainwise IP-100,2013-01-05 19:02:00,
2013-01-05 13:07:00,51.2,38.0,28.77,SW,225,11.2,-999.0,60,0.00,,,0.00,Rainwise IP-100,2013-01-05 19:07:00,
2013-01-05 13:12:00,51.3,38.0,28.77,WSW,247,5.1,-999.0,60,0.00,,,0.00,Rainwise IP-100,2013-01-05 19:12:00,
2013-01-05 13:17:00,51.8,37.0,28.77,WSW,247,6.8,-999.0,57,0.00,,,0.00,Rainwise IP-100,2013-01-05 19:17:00,
2013-01-05 13:22:00,52.2,37.0,28.76,West,270,8.4,-999.0,56,0.00,,,0.00,Rainwise IP-100,2013-01-05 19:22:00,
2013-01-05 13:27:00,52.2,37.0,28.76,WSW,247,2.6,-999.0,56,0.00,,,0.00,Rainwise IP-100,2013-01-05 19:27:00,
2013-01-05 13:32:00,52.4,36.0,28.76,SW,225,7.9,-999.0,55,0.00,,,0.00,Rainwise IP-100,2013-01-05 19:32:00,
2013-01-05 13:37:00,52.6,37.0,28.76,WSW,247,8.4,-999.0,54,0.00,,,0.00,Rainwise IP-100,2013-01-05 19:37:00,
2013-01-05 13:42:00,53.0,37.0,28.76,WSW,247,10.5,-999.0,54,0.00,,,0.00,Rainwise IP-100,2013-01-05 19:42:00,
2013-01-05 13:47:00,53.4,37.0,28.76,West,270,9.6,-999.0,53,0.00,,,0.00,Rainwise IP-100,2013-01-05 19:47:00,
2013-01-05 13:52:00,53.5,36.0,28.76,SSW,202,6.8,-999.0,52,0.00,,,0.00,Rainwise IP-100,2013-01-05 19:52:00,
2013-01-05 13:57:00,53.7,36.0,28.75,West,270,10.3,-999.0,51,0.00,,,0.00,Rainwise IP-100,2013-01-05 19:57:00,
2013-01-05 14:02:00,53.6,36.0,28.75,WSW,247,7.9,-999.0,50,0.00,,,0.00,Rainwise IP-100,2013-01-05 20:02:00,
2013-01-05 14:07:00,53.6,36.0,28.75,SW,225,12.1,-999.0,50,0.00,,,0.00,Rainwise IP-100,2013-01-05 20:07:00,
2013-01-05 14:12:00,53.6,35.0,28.75,WNW,292,5.4,-999.0,49,0.00,,,0.00,Rainwise IP-100,2013-01-05 20:12:00,
2013-01-05 14:17:00,53.7,35.0,28.74,SW,225,6.5,-999.0,49,0.00,,,0.00,Rainwise IP-100,2013-01-05 20:17:00,
2013-01-05 14:22:00,53.8,36.0,28.75,West,270,5.6,-999.0,49,0.00,,,0.00,Rainwise IP-100,2013-01-05 20:22:00,
2013-01-05 14:27:00,54.0,36.0,28.75,West,270,10.0,-999.0,49,0.00,,,0.00,Rainwise IP-100,2013-01-05 20:27:00,
2013-01-05 14:32:00,54.2,36.0,28.74,WSW,247,7.7,-999.0,49,0.00,,,0.00,Rainwise IP-100,2013-01-05 20:32:00,
2013-01-05 14:37:00,54.3,36.0,28.74,WSW,247,4.0,-999.0,49,0.00,,,0.00,Rainwise IP-100,2013-01-05 20:37:00,
2013-01-05 14:42:00,54.7,36.0,28.74,West,270,4.7,-999.0,48,0.00,,,0.00,Rainwise IP-100,2013-01-05 20:42:00,
2013-01-05 14:47:00,54.9,36.0,28.74,SW,225,8.4,-999.0,48,0.00,,,0.00,Rainwise IP-100,2013-01-05 20:47:00,
2013-01-05 14:52:00,54.8,36.0,28.74,WSW,247,6.3,-999.0,47,0.00,,,0.00,Rainwise IP-100,2013-01-05 20:52:00,
2013-01-05 14:57:00,54.8,36.0,28.74,WSW,247,8.6,-999.0,47,0.00,,,0.00,Rainwise IP-100,2013-01-05 20:57:00,
2013-01-05 15:02:00,54.8,36.0,28.74,West,270,13.8,-999.0,47,0.00,,,0.00,Rainwise IP-100,2013-01-05 21:02:00,
2013-01-05 15:07:00,54.9,36.0,28.74,West,270,4.2,-999.0,47,0.00,,,0.00,Rainwise IP-100,2013-01-05 21:07:00,
2013-01-05 15:12:00,55.1,36.0,28.74,WSW,247,9.1,-999.0,47,0.00,,,0.00,Rainwise IP-100,2013-01-05 21:12:00,
2013-01-05 15:17:00,55.4,35.0,28.74,West,270,9.3,-999.0,46,0.00,,,0.00,Rainwise IP-100,2013-01-05 21:17:00,
2013-01-05 15:22:00,55.3,35.0,28.74,WSW,247,4.0,-999.0,46,0.00,,,0.00,Rainwise IP-100,2013-01-05 21:22:00,
2013-01-05 15:27:00,55.4,35.0,28.74,West,270,3.0,-999.0,46,0.00,,,0.00,Rainwise IP-100,2013-01-05 21:27:00,
2013-01-05 15:32:00,55.6,36.0,28.74,WSW,247,8.9,-999.0,46,0.00,,,0.00,Rainwise IP-100,2013-01-05 21:32:00,
2013-01-05 15:37:00,55.6,36.0,28.74,WSW,247,4.4,-999.0,46,0.00,,,0.00,Rainwise IP-100,2013-01-05 21:37:00,
2013-01-05 15:42:00,55.6,36.0,28.74,WSW,247,5.1,-999.0,46,0.00,,,0.00,Rainwise IP-100,2013-01-05 21:42:00,
2013-01-05 15:47:00,55.8,35.0,28.74,WNW,292,7.5,-999.0,45,0.00,,,0.00,Rainwise IP-100,2013-01-05 21:47:00,
2013-01-05 15:52:00,55.7,35.0,28.74,West,270,7.0,-999.0,45,0.00,,,0.00,Rainwise IP-100,2013-01-05 21:52:00,
2013-01-05 15:57:00,55.4,35.0,28.74,West,270,2.8,-999.0,45,0.00,,,0.00,Rainwise IP-100,2013-01-05 21:57:00,
2013-01-05 16:02:00,55.5,36.0,28.74,WNW,292,4.2,-999.0,46,0.00,,,0.00,Rainwise IP-100,2013-01-05 22:02:00,
2013-01-05 16:07:00,55.8,35.0,28.74,West,270,6.3,-999.0,45,0.00,,,0.00,Rainwise IP-100,2013-01-05 22:07:00,
2013-01-05 16:12:00,55.9,35.0,28.74,West,270,4.4,-999.0,45,0.00,,,0.00,Rainwise IP-100,2013-01-05 22:12:00,
2013-01-05 16:17:00,55.7,35.0,28.75,WSW,247,8.9,-999.0,45,0.00,,,0.00,Rainwise IP-100,2013-01-05 22:17:00,
2013-01-05 16:22:00,55.5,35.0,28.75,WSW,247,3.0,-999.0,44,0.00,,,0.00,Rainwise IP-100,2013-01-05 22:22:00,
2013-01-05 16:27:00,55.8,35.0,28.74,West,270,4.2,-999.0,44,0.00,,,0.00,Rainwise IP-100,2013-01-05 22:27:00,
2013-01-05 16:32:00,56.2,35.0,28.75,WSW,247,4.7,-999.0,44,0.00,,,0.00,Rainwise IP-100,2013-01-05 22:32:00,
2013-01-05 16:37:00,56.3,35.0,28.75,WSW,247,7.7,-999.0,44,0.00,,,0.00,Rainwise IP-100,2013-01-05 22:37:00,
2013-01-05 16:42:00,56.3,35.0,28.75,West,270,8.2,-999.0,43,0.00,,,0.00,Rainwise IP-100,2013-01-05 22:42:00,
2013-01-05 16:47:00,56.0,33.0,28.75,West,270,5.8,-999.0,43,0.00,,,0.00,Rainwise IP-100,2013-01-05 22:47:00,
2013-01-05 16:52:00,55.5,35.0,28.75,West,270,5.8,-999.0,44,0.00,,,0.00,Rainwise IP-100,2013-01-05 22:52:00,
2013-01-05 16:57:00,55.3,33.0,28.74,WSW,247,3.7,-999.0,44,0.00,,,0.00,Rainwise IP-100,2013-01-05 22:57:00,
2013-01-05 17:02:00,55.3,35.0,28.75,WSW,247,2.8,-999.0,45,0.00,,,0.00,Rainwise IP-100,2013-01-05 23:02:00,
2013-01-05 17:07:00,55.0,35.0,28.75,WSW,247,3.7,-999.0,45,0.00,,,0.00,Rainwise IP-100,2013-01-05 23:07:00,
2013-01-05 17:12:00,54.8,35.0,28.75,WSW,247,2.1,-999.0,46,0.00,,,0.00,Rainwise IP-100,2013-01-05 23:12:00,
2013-01-05 17:17:00,54.8,35.0,28.75,West,270,2.6,-999.0,46,0.00,,,0.00,Rainwise IP-100,2013-01-05 23:17:00,
2013-01-05 17:22:00,54.7,35.0,28.75,West,270,1.9,-999.0,46,0.00,,,0.00,Rainwise IP-100,2013-01-05 23:22:00,
2013-01-05 17:27:00,54.5,35.0,28.75,WSW,247,3.0,-999.0,46,0.00,,,0.00,Rainwise IP-100,2013-01-05 23:27:00,
2013-01-05 17:32:00,54.2,35.0,28.75,West,270,1.6,-999.0,47,0.00,,,0.00,Rainwise IP-100,2013-01-05 23:32:00,
2013-01-05 17:37:00,53.7,35.0,28.75,West,270,0.0,-999.0,48,0.00,,,0.00,Rainwise IP-100,2013-01-05 23:37:00,
2013-01-05 17:42:00,53.1,33.0,28.75,West,270,0.0,-999.0,48,0.00,,,0.00,Rainwise IP-100,2013-01-05 23:42:00,
2013-01-05 17:47:00,52.3,33.0,28.75,West,270,1.2,-999.0,49,0.00,,,0.00,Rainwise IP-100,2013-01-05 23:47:00,
2013-01-05 17:52:00,51.5,35.0,28.75,West,270,0.0,-999.0,51,0.00,,,0.00,Rainwise IP-100,2013-01-05 23:52:00,
2013-01-05 17:57:00,50.7,33.0,28.75,West,270,0.0,-999.0,52,0.00,,,0.00,Rainwise IP-100,2013-01-05 23:57:00,
2013-01-05 18:02:00,49.9,33.0,28.75,West,270,0.0,-999.0,54,0.00,,,0.00,Rainwise IP-100,2013-01-06 00:02:00,
2013-01-05 18:07:00,48.8,35.0,28.75,West,270,0.0,-999.0,56,0.00,,,0.00,Rainwise IP-100,2013-01-06 00:07:00,
2013-01-05 18:12:00,47.7,33.0,28.76,West,270,0.0,-999.0,58,0.00,,,0.00,Rainwise IP-100,2013-01-06 00:12:00,
2013-01-05 18:17:00,46.7,33.0,28.76,West,270,0.0,-999.0,60,0.00,,,0.00,Rainwise IP-100,2013-01-06 00:17:00,
2013-01-05 18:22:00,45.8,33.0,28.76,West,270,0.0,-999.0,62,0.00,,,0.00,Rainwise IP-100,2013-01-06 00:22:00,
2013-01-05 18:27:00,44.8,35.0,28.76,West,270,0.0,-999.0,66,0.00,,,0.00,Rainwise IP-100,2013-01-06 00:27:00,
2013-01-05 18:32:00,43.6,35.0,28.76,West,270,0.0,-999.0,69,0.00,,,0.00,Rainwise IP-100,2013-01-06 00:32:00,
2013-01-05 18:37:00,42.6,35.0,28.76,West,270,0.0,-999.0,71,0.00,,,0.00,Rainwise IP-100,2013-01-06 00:37:00,
2013-01-05 18:42:00,42.1,33.0,28.76,West,270,0.0,-999.0,72,0.00,,,0.00,Rainwise IP-100,2013-01-06 00:42:00,
2013-01-05 18:47:00,41.4,33.0,28.76,West,270,0.0,-999.0,73,0.00,,,0.00,Rainwise IP-100,2013-01-06 00:47:00,
2013-01-05 18:52:00,40.9,35.0,28.77,West,270,1.2,-999.0,75,0.00,,,0.00,Rainwise IP-100,2013-01-06 00:52:00,
2013-01-05 18:57:00,40.6,35.0,28.77,West,270,0.0,-999.0,77,0.00,,,0.00,Rainwise IP-100,2013-01-06 00:57:00,
2013-01-05 19:02:00,40.3,33.0,28.77,West,270,0.0,-999.0,77,0.00,,,0.00,Rainwise IP-100,2013-01-06 01:02:00,
2013-01-05 19:07:00,40.0,33.0,28.77,West,270,0.0,-999.0,76,0.00,,,0.00,Rainwise IP-100,2013-01-06 01:07:00,
2013-01-05 19:12:00,39.7,33.0,28.77,West,270,0.0,-999.0,77,0.00,,,0.00,Rainwise IP-100,2013-01-06 01:12:00,
2013-01-05 19:17:00,39.8,35.0,28.78,West,270,0.0,-999.0,78,0.00,,,0.00,Rainwise IP-100,2013-01-06 01:17:00,
2013-01-05 19:22:00,39.8,35.0,28.78,West,270,0.0,-999.0,78,0.00,,,0.00,Rainwise IP-100,2013-01-06 01:22:00,
2013-01-05 19:27:00,39.5,35.0,28.78,West,270,1.4,-999.0,79,0.00,,,0.00,Rainwise IP-100,2013-01-06 01:27:00,
2013-01-05 19:32:00,39.2,33.0,28.78,West,270,0.0,-999.0,80,0.00,,,0.00,Rainwise IP-100,2013-01-06 01:32:00,
2013-01-05 19:37:00,39.1,33.0,28.78,West,270,0.0,-999.0,80,0.00,,,0.00,Rainwise IP-100,2013-01-06 01:37:00,
2013-01-05 19:42:00,38.9,33.0,28.78,West,270,1.4,-999.0,80,0.00,,,0.00,Rainwise IP-100,2013-01-06 01:42:00,
2013-01-05 19:47:00,39.4,33.0,28.78,West,270,0.0,-999.0,80,0.00,,,0.00,Rainwise IP-100,2013-01-06 01:47:00,
2013-01-05 19:52:00,40.2,35.0,28.78,West,270,0.0,-999.0,78,0.00,,,0.00,Rainwise IP-100,2013-01-06 01:52:00,
2013-01-05 19:57:00,39.9,35.0,28.78,West,270,0.0,-999.0,78,0.00,,,0.00,Rainwise IP-100,2013-01-06 01:57:00,
2013-01-05 20:02:00,39.3,33.0,28.78,West,270,0.0,-999.0,79,0.00,,,0.00,Rainwise IP-100,2013-01-06 02:02:00,
2013-01-05 20:07:00,38.8,33.0,28.78,West,270,0.0,-999.0,80,0.00,,,0.00,Rainwise IP-100,2013-01-06 02:07:00,
2013-01-05 20:12:00,38.2,33.0,28.78,West,270,0.0,-999.0,81,0.00,,,0.00,Rainwise IP-100,2013-01-06 02:12:00,
2013-01-05 20:17:00,38.2,33.0,28.78,West,270,0.0,-999.0,81,0.00,,,0.00,Rainwise IP-100,2013-01-06 02:17:00,
2013-01-05 20:22:00,39.2,33.0,28.79,West,270,0.0,-999.0,80,0.00,,,0.00,Rainwise IP-100,2013-01-06 02:22:00,
2013-01-05 20:27:00,39.4,33.0,28.79,West,270,0.0,-999.0,79,0.00,,,0.00,Rainwise IP-100,2013-01-06 02:27:00,
2013-01-05 20:32:00,38.6,33.0,28.79,West,270,0.0,-999.0,80,0.00,,,0.00,Rainwise IP-100,2013-01-06 02:32:00,
2013-01-05 20:37:00,38.1,33.0,28.78,West,270,0.0,-999.0,81,0.00,,,0.00,Rainwise IP-100,2013-01-06 02:37:00,
2013-01-05 20:42:00,38.1,33.0,28.79,West,270,1.2,-999.0,81,0.00,,,0.00,Rainwise IP-100,2013-01-06 02:42:00,
2013-01-05 20:47:00,38.5,33.0,28.79,West,270,0.0,-999.0,81,0.00,,,0.00,Rainwise IP-100,2013-01-06 02:47:00,
2013-01-05 20:52:00,38.9,33.0,28.79,West,270,1.2,-999.0,80,0.00,,,0.00,Rainwise IP-100,2013-01-06 02:52:00,
2013-01-05 20:57:00,39.8,35.0,28.79,West,270,0.0,-999.0,79,0.00,,,0.00,Rainwise IP-100,2013-01-06 02:57:00,
2013-01-05 21:02:00,40.4,35.0,28.79,West,270,0.0,-999.0,78,0.00,,,0.00,Rainwise IP-100,2013-01-06 03:02:00,
2013-01-05 21:07:00,40.5,35.0,28.79,West,270,0.0,-999.0,77,0.00,,,0.00,Rainwise IP-100,2013-01-06 03:07:00,
2013-01-05 21:12:00,40.6,35.0,28.79,West,270,0.0,-999.0,76,0.00,,,0.00,Rainwise IP-100,2013-01-06 03:12:00,
2013-01-05 21:17:00,40.6,35.0,28.79,West,270,0.0,-999.0,76,0.00,,,0.00,Rainwise IP-100,2013-01-06 03:17:00,
2013-01-05 21:22:00,40.3,33.0,28.79,West,270,0.0,-999.0,77,0.00,,,0.00,Rainwise IP-100,2013-01-06 03:22:00,
2013-01-05 21:27:00,39.7,33.0,28.80,West,270,0.0,-999.0,77,0.00,,,0.00,Rainwise IP-100,2013-01-06 03:27:00,
2013-01-05 21:32:00,39.0,33.0,28.80,West,270,1.4,-999.0,79,0.00,,,0.00,Rainwise IP-100,2013-01-06 03:32:00,
2013-01-05 21:37:00,39.4,33.0,28.80,West,270,1.6,-999.0,80,0.00,,,0.00,Rainwise IP-100,2013-01-06 03:37:00,
2013-01-05 21:42:00,40.5,35.0,28.80,West,270,2.1,-999.0,78,0.00,,,0.00,Rainwise IP-100,2013-01-06 03:42:00,
2013-01-05 21:47:00,41.1,35.0,28.80,West,270,2.1,-999.0,76,0.00,,,0.00,Rainwise IP-100,2013-01-06 03:47:00,
2013-01-05 21:52:00,41.5,35.0,28.80,West,270,0.0,-999.0,75,0.00,,,0.00,Rainwise IP-100,2013-01-06 03:52:00,
2013-01-05 21:57:00,41.8,35.0,28.80,West,270,2.8,-999.0,74,0.00,,,0.00,Rainwise IP-100,2013-01-06 03:57:00,
2013-01-05 22:02:00,41.9,35.0,28.80,West,270,1.4,-999.0,74,0.00,,,0.00,Rainwise IP-100,2013-01-06 04:02:00,
2013-01-05 22:07:00,42.0,35.0,28.80,West,270,1.9,-999.0,73,0.00,,,0.00,Rainwise IP-100,2013-01-06 04:07:00,
2013-01-05 22:12:00,42.1,35.0,28.81,West,270,1.6,-999.0,73,0.00,,,0.00,Rainwise IP-100,2013-01-06 04:12:00,
2013-01-05 22:17:00,42.0,35.0,28.81,West,270,1.9,-999.0,73,0.00,,,0.00,Rainwise IP-100,2013-01-06 04:17:00,
2013-01-05 22:22:00,41.9,35.0,28.81,WNW,292,1.4,-999.0,73,0.00,,,0.00,Rainwise IP-100,2013-01-06 04:22:00,
2013-01-05 22:27:00,41.9,35.0,28.81,WNW,292,2.1,-999.0,73,0.00,,,0.00,Rainwise IP-100,2013-01-06 04:27:00,
2013-01-05 22:32:00,41.7,35.0,28.82,West,270,1.6,-999.0,73,0.00,,,0.00,Rainwise IP-100,2013-01-06 04:32:00,
2013-01-05 22:37:00,41.4,33.0,28.82,West,270,1.2,-999.0,73,0.00,,,0.00,Rainwise IP-100,2013-01-06 04:37:00,
2013-01-05 22:42:00,41.4,33.0,28.81,West,270,2.3,-999.0,74,0.00,,,0.00,Rainwise IP-100,2013-01-06 04:42:00,
2013-01-05 22:47:00,41.4,33.0,28.81,West,270,0.0,-999.0,74,0.00,,,0.00,Rainwise IP-100,2013-01-06 04:47:00,
2013-01-05 22:52:00,41.1,33.0,28.82,West,270,0.0,-999.0,74,0.00,,,0.00,Rainwise IP-100,2013-01-06 04:52:00,
2013-01-05 22:57:00,40.9,33.0,28.82,WNW,292,0.0,-999.0,74,0.00,,,0.00,Rainwise IP-100,2013-01-06 04:57:00,
2013-01-05 23:00:00,40.8,33.0,28.82,WNW,292,1.4,-999.0,74,0.00,,,0.00,Rainwise IP-100,2013-01-06 05:00:00,
2013-01-05 23:01:00,40.7,35.0,28.82,WNW,292,0.0,-999.0,75,0.00,,,0.00,Rainwise IP-100,2013-01-06 05:01:00,
2013-01-05 23:06:00,40.6,35.0,28.82,West,270,1.4,-999.0,75,0.00,,,0.00,Rainwise IP-100,2013-01-06 05:06:00,
2013-01-05 23:11:00,40.5,35.0,28.82,WNW,292,0.0,-999.0,75,0.00,,,0.00,Rainwise IP-100,2013-01-06 05:11:00,
2013-01-05 23:16:00,40.2,33.0,28.82,WNW,292,2.1,-999.0,75,0.00,,,0.00,Rainwise IP-100,2013-01-06 05:16:00,
2013-01-05 23:21:00,39.9,33.0,28.81,WNW,292,0.0,-999.0,76,0.00,,,0.00,Rainwise IP-100,2013-01-06 05:21:00,
2013-01-05 23:26:00,39.5,33.0,28.82,WNW,292,1.2,-999.0,76,0.00,,,0.00,Rainwise IP-100,2013-01-06 05:26:00,
2013-01-05 23:31:00,39.1,32.0,28.82,WNW,292,1.2,-999.0,77,0.00,,,0.00,Rainwise IP-100,2013-01-06 05:31:00,
2013-01-05 23:36:00,38.7,33.0,28.82,WNW,292,0.0,-999.0,78,0.00,,,0.00,Rainwise IP-100,2013-01-06 05:36:00,
2013-01-05 23:41:00,38.3,32.0,28.82,WNW,292,0.0,-999.0,79,0.00,,,0.00,Rainwise IP-100,2013-01-06 05:41:00,
2013-01-05 23:46:00,38.3,32.0,28.82,WNW,292,1.2,-999.0,79,0.00,,,0.00,Rainwise IP-100,2013-01-06 05:46:00,
2013-01-05 23:51:00,38.5,33.0,28.82,WNW,292,1.6,-999.0,79,0.00,,,0.00,Rainwise IP-100,2013-01-06 05:51:00,
2013-01-05 23:56:00,38.4,32.0,28.82,WNW,292,1.2,-999.0,79,0.00,,,0.00,Rainwise IP-100,2013-01-06 05:56:00,